Location: Cold Norton
(51.6667°N, 0.6667°E)
Time: 02:29:40
(UTC+00:00)

Cosmos 1656 Rocket - Pass Details

Date: 18 November 2025
Orbit: 791 x 846 km, 71.1° (Epoch: 13 December)

Event Time Altitude Azimuth Distance (km) Brightness Sun altitude
Rises 18:00:34 0° 176° (S) 3,332 6.9 -17.8°
Reaches altitude 10° 18:03:11 10° 167° (SSE) 2,414 6.0 -18.2°
Maximum altitude 18:08:01 32° 106° (ESE) 1,400 4.3 -19.0°
Enters shadow 18:08:02 32° 105° (ESE) 1,400 4.3 -19.0°
